{"data":{"norad_id":57610,"epoch":"2026-09-19T18:36:25.449120Z","epoch_age_seconds":190584,"freshness":"STALE","line1":"1 57610U 23119J   26262.77529455 -.00001838  00000+0 -57297-4 0  9992","line2":"2 57610  43.0036  65.1123 0001645 264.9649  95.1015 15.27564215172774","mean_motion":15.27564215,"eccentricity":0.0001645,"inclination_deg":43.0036,"raan_deg":65.1123,"arg_perigee_deg":264.9649,"mean_anomaly_deg":95.1015,"bstar":-5.7297e-5,"rev_number":17277,"period_min":94.267722813865,"perigee_km":481.96768952718,"apogee_km":484.22503530341,"semimajor_km":6861.2333624153,"source":"CELESTRAK","updated_at":"2026-09-21T09:00:33.641467Z"}}